Regional Weather Roundup
Issued by NWS

Home | Current Version | Previous Version | Text Only | Print | Product List | Glossary Off
Versions: 1 2 3 4 5 6 7 8 9 10 11 12 13 14 15 16 17 18 19 20 21 22 23 24 25 26 27 28 29 30 31 32 33 34 35 36 37 38 39 40 41 42 43 44 45 46 47 48 49 50

000
ASUS44 KMEG 222200
RWRTN
TENNESSEE HOURLY STATE WEATHER ROUNDUP
NATIONAL WEATHER SERVICE MEMPHIS TN
500 PM CDT MON SEP 22 2014

TNZ002-004-019-021-049-052-054-088>092-222300-
WEST TENNESSEE

CITY           SKY/WX    TMP DP  RH WIND       PRES   REMARKS
MEMPHIS INTL   MOSUNNY   77  50  38 NE13      30.15F
NWS MEMPHIS      N/A     74 N/A N/A MISG        N/A
JACKSON        SUNNY     76  50  40 N12       30.16F
DYERSBURG      SUNNY     73  46  38 NE10      30.19S
UNION CITY     SUNNY     72  45  37 NE8       30.18S
PARIS          SUNNY     72  43  35 N8        30.19F
SAVANNAH       SUNNY     75  50  41 N12       30.15S
$$

TNZ008-025-027-028-033-062-065-066-222300-
NORTH MIDDLE TENNESSEE

CITY           SKY/WX    TMP DP  RH WIND       PRES   REMARKS
NASHVILLE      SUNNY     74  44  34 N12G21    30.17S
CLARKSVILLE    SUNNY     73  44  35 N12       30.18S
COOKEVILLE     SUNNY     70  46  43 NE8       30.16S
CROSSVILLE     SUNNY     69  46  43 N9        30.17F
$$

TNZ061-075-076-078-094-096-097-222300-
SOUTH MIDDLE TENNESSEE

CITY           SKY/WX    TMP DP  RH WIND       PRES   REMARKS
WINCHESTER     SUNNY     72  48  43 N12       30.13S
SHELBYVILLE    SUNNY     73  46  38 N8        30.16S
$$

TNZ017-018-042-046-047-222300-
NORTHEAST TENNESSEE

CITY           SKY/WX    TMP DP  RH WIND       PRES   REMARKS
TRI CITIES     MOSUNNY   69  47  45 VRB3      30.15R
ELIZABETHTON   CLEAR     66  46  48 N5        30.15R
$$

TNZ012-013-036-069-073-074-222300-
CENTRAL EAST TENNESSEE

CITY           SKY/WX    TMP DP  RH WIND       PRES   REMARKS
KNOXVILLE      MOSUNNY   72  47  40 NE9       30.12S
OAK RIDGE      SUNNY     72  47  40 MISG      30.15S
GATLINBURG     CLEAR     72  46  40 NE5       30.12S
$$

TNZ083-085-099-222300-
SOUTHEAST TENNESSEE

CITY           SKY/WX    TMP DP  RH WIND       PRES   REMARKS
CHATTANOOGA    SUNNY     75  44  33 NE16      30.10S
$$

SKY/WX REPORTED AS FAIR MEANS FEW OR NO CLOUDS BELOW
12 THOUSAND FEET.



USA.gov is the U.S. government's official web portal to all federal, state and local government web resources and services.